| time (UTC) | temp F | wind direction | speed MPH | gust MPH | rain 1hr in | rain 24hr in | rain mn in | humidity % | barometer mb |
| 20260504234704 | 66 | 271 | 5.0 | 11.0 | 0.00 | 0.00 | 0.00 | 61 | 1015.3 |
| 20260504233205 | 66 | 234 | 6.0 | 14.0 | 0.00 | 0.00 | 0.00 | 60 | 1015.3 |
| 20260504232704 | 66 | 175 | 6.0 | 14.0 | 0.00 | 0.00 | 0.00 | 58 | 1015.3 |
| 20260504232204 | 66 | 207 | 7.0 | 13.0 | 0.00 | 0.00 | 0.00 | 58 | 1015.3 |
| 20260504231204 | 66 | 239 | 6.0 | 12.0 | 0.00 | 0.00 | 0.00 | 61 | 1015.5 |
| 20260504230705 | 66 | 185 | 6.0 | 15.0 | 0.00 | 0.00 | 0.00 | 61 | 1015.4 |
| 20260504230204 | 66 | 233 | 6.0 | 15.0 | 0.00 | 0.00 | 0.00 | 61 | 1015.4 |
| 20260504225704 | 65 | 212 | 7.0 | 15.0 | 0.00 | 0.00 | 0.00 | 63 | 1015.5 |
| 20260504225204 | 65 | 188 | 7.0 | 15.0 | 0.00 | 0.00 | 0.00 | 62 | 1015.3 |
| 20260504224704 | 66 | 226 | 6.0 | 13.0 | 0.00 | 0.00 | 0.00 | 62 | 1015.4 |
| 20260504222205 | 65 | 192 | 7.0 | 15.0 | 0.00 | 0.00 | 0.00 | 67 | 1015.5 |
| 20260504221204 | 65 | 220 | 6.0 | 14.0 | 0.00 | 0.00 | 0.00 | 67 | 1015.7 |
| 20260504220705 | 65 | 256 | 7.0 | 14.0 | 0.00 | 0.00 | 0.00 | 66 | 1015.7 |
| 20260504220203 | 65 | 223 | 7.0 | 15.0 | 0.00 | 0.00 | 0.00 | 66 | 1015.8 |
| 20260504215704 | 65 | 209 | 6.0 | 15.0 | 0.00 | 0.00 | 0.00 | 65 | 1015.8 |
| 20260504215205 | 65 | 279 | 6.0 | 15.0 | 0.00 | 0.00 | 0.00 | 65 | 1015.9 |
| 20260504214706 | 65 | 214 | 6.0 | 17.0 | 0.00 | 0.00 | 0.00 | 65 | 1015.9 |
| 20260504214205 | 65 | 225 | 7.0 | 17.0 | 0.00 | 0.00 | 0.00 | 66 | 1015.9 |
| 20260504213704 | 65 | 227 | 7.0 | 17.0 | 0.00 | 0.00 | 0.00 | 67 | 1015.9 |
| 20260504213204 | 64 | 254 | 7.0 | 14.0 | 0.00 | 0.00 | 0.00 | 67 | 1015.9 |
| 20260504212205 | 64 | 233 | 7.0 | 15.0 | 0.00 | 0.00 | 0.00 | 71 | 1016.1 |
| 20260504211704 | 64 | 215 | 7.0 | 15.0 | 0.00 | 0.00 | 0.00 | 71 | 1016.2 |
| 20260504211205 | 64 | 225 | 7.0 | 18.0 | 0.00 | 0.00 | 0.00 | 72 | 1016.2 |
| 20260504210705 | 63 | 243 | 7.0 | 18.0 | 0.00 | 0.00 | 0.00 | 72 | 1016.2 |
| 20260504205704 | 63 | 228 | 8.0 | 14.0 | 0.00 | 0.00 | 0.00 | 73 | 1016.2 |
| 20260504205204 | 63 | 207 | 7.0 | 14.0 | 0.00 | 0.00 | 0.00 | 72 | 1016.2 |
| 20260504204705 | 64 | 161 | 6.0 | 16.0 | 0.00 | 0.00 | 0.00 | 72 | 1016.2 |
| 20260504204204 | 63 | 203 | 7.0 | 16.0 | 0.00 | 0.00 | 0.00 | 73 | 1016.2 |
| 20260504203704 | 63 | 166 | 7.0 | 16.0 | 0.00 | 0.00 | 0.00 | 73 | 1016.2 |
| 20260504202206 | 63 | 221 | 6.0 | 14.0 | 0.00 | 0.00 | 0.00 | 75 | 1016.4 |
| 20260504201705 | 62 | 257 | 7.0 | 14.0 | 0.00 | 0.00 | 0.00 | 75 | 1016.4 |
| 20260504201204 | 62 | 206 | 7.0 | 15.0 | 0.00 | 0.00 | 0.00 | 76 | 1016.4 |
| 20260504195705 | 61 | 223 | 7.0 | 15.0 | 0.00 | 0.00 | 0.00 | 76 | 1016.5 |
| 20260504195204 | 61 | 229 | 7.0 | 14.0 | 0.00 | 0.00 | 0.00 | 78 | 1016.5 |
| 20260504194704 | 61 | 203 | 8.0 | 13.0 | 0.00 | 0.00 | 0.00 | 77 | 1016.7 |
| 20260504194205 | 61 | 227 | 8.0 | 13.0 | 0.00 | 0.00 | 0.00 | 77 | 1016.5 |
| 20260504193705 | 61 | 223 | 7.0 | 12.0 | 0.00 | 0.00 | 0.00 | 77 | 1016.5 |
| 20260504193204 | 60 | 188 | 7.0 | 14.0 | 0.00 | 0.00 | 0.00 | 76 | 1016.6 |
| 20260504192704 | 60 | 256 | 7.0 | 14.0 | 0.00 | 0.00 | 0.00 | 76 | 1016.6 |
| 20260504192205 | 61 | 218 | 7.0 | 13.0 | 0.00 | 0.00 | 0.00 | 74 | 1016.6 |
| 20260504191704 | 61 | 196 | 6.0 | 14.0 | 0.00 | 0.00 | 0.00 | 73 | 1016.5 |
| 20260504191204 | 62 | 141 | 6.0 | 14.0 | 0.00 | 0.00 | 0.00 | 73 | 1016.6 |
| 20260504190705 | 62 | 198 | 6.0 | 11.0 | 0.00 | 0.00 | 0.00 | 74 | 1016.5 |
| 20260504190205 | 62 | 175 | 6.0 | 11.0 | 0.00 | 0.00 | 0.00 | 74 | 1016.5 |
| 20260504185204 | 62 | 225 | 5.0 | 12.0 | 0.00 | 0.00 | 0.00 | 75 | 1016.7 |
| 20260504184705 | 62 | 167 | 5.0 | 12.0 | 0.00 | 0.00 | 0.00 | 75 | 1016.7 |
| 20260504183204 | 61 | 188 | 6.0 | 11.0 | 0.00 | 0.00 | 0.00 | 73 | 1016.7 |
| 20260504182704 | 62 | 195 | 5.0 | 10.0 | 0.00 | 0.00 | 0.00 | 74 | 1016.6 |
| 20260504182204 | 61 | 202 | 6.0 | 10.0 | 0.00 | 0.00 | 0.00 | 74 | 1016.6 |
| 20260504181705 | 62 | 123 | 6.0 | 10.0 | 0.00 | 0.00 | 0.00 | 73 | 1016.6 |
| 20260504181204 | 61 | 175 | 6.0 | 9.0 | 0.00 | 0.00 | 0.00 | 73 | 1016.5 |
| 20260504180704 | 62 | 207 | 5.0 | 10.0 | 0.00 | 0.00 | 0.00 | 73 | 1016.6 |
| 20260504175204 | 62 | 215 | 5.0 | 10.0 | 0.00 | 0.00 | 0.00 | 75 | 1016.4 |
| 20260504174704 | 61 | 211 | 5.0 | 10.0 | 0.00 | 0.00 | 0.00 | 75 | 1016.2 |
| 20260504174205 | 61 | 168 | 4.0 | 11.0 | 0.00 | 0.00 | 0.00 | 74 | 1016.1 |
| 20260504173704 | 61 | 189 | 4.0 | 11.0 | 0.00 | 0.00 | 0.00 | 76 | 1016.1 |
| 20260504173204 | 61 | 151 | 4.0 | 9.0 | 0.00 | 0.00 | 0.00 | 75 | 1016.2 |
| 20260504172206 | 61 | 192 | 4.0 | 8.0 | 0.00 | 0.00 | 0.00 | 76 | 1016.2 |
| 20260504171705 | 60 | 118 | 4.0 | 8.0 | 0.00 | 0.00 | 0.00 | 77 | 1016.1 |
| 20260504171205 | 60 | 148 | 4.0 | 8.0 | 0.00 | 0.00 | 0.00 | 76 | 1016.0 |
| 20260504170704 | 60 | 146 | 3.0 | 8.0 | 0.00 | 0.00 | 0.00 | 78 | 1016.0 |
| 20260504170204 | 60 | 117 | 3.0 | 7.0 | 0.00 | 0.00 | 0.00 | 77 | 1016.0 |
| 20260504160204 | 57 | 116 | 3.0 | 8.0 | 0.00 | 0.00 | 0.00 | 84 | 1016.1 |
| 20260504150704 | 52 | 5 | 1.0 | 4.0 | 0.00 | 0.00 | 0.00 | 89 | 1016.1 |
| 20260504150206 | 51 | 25 | 1.0 | 4.0 | 0.00 | 0.00 | 0.00 | 89 | 1016.0 |
| 20260504141204 | 48 | 346 | 3.0 | 5.0 | 0.00 | 0.00 | 0.00 | 90 | 1015.9 |
| 20260504140704 | 48 | 348 | 2.0 | 4.0 | 0.00 | 0.00 | 0.00 | 90 | 1015.9 |
| 20260504130704 | 48 | 17 | 1.0 | 3.0 | 0.00 | 0.00 | 0.00 | 89 | 1015.3 |
| 20260504110704 | 48 | 5 | 2.0 | 6.0 | 0.00 | 0.00 | 0.00 | 89 | 1015.5 |
| 20260504081704 | 49 | 26 | 2.0 | 4.0 | 0.00 | 0.00 | 0.00 | 87 | 1016.0 |
| 20260504081204 | 49 | 339 | 2.0 | 4.0 | 0.00 | 0.00 | 0.00 | 87 | 1016.0 |
| 20260504080704 | 49 | 347 | 1.0 | 4.0 | 0.00 | 0.00 | 0.00 | 87 | 1016.0 |
| 20260504080204 | 49 | 33 | 1.0 | 4.0 | 0.00 | 0.00 | 0.00 | 87 | 1016.1 |
| 20260504070205 | 50 | 32 | 0.0 | 2.0 | 0.00 | 0.00 | 0.00 | 86 | 1016.0 |
| 20260504060205 | 51 | 5 | 2.0 | 5.0 | 0.00 | 0.00 | 0.00 | 84 | 1015.9 |
| 20260504050704 | 53 | 16 | 1.0 | 4.0 | 0.00 | 0.00 | 0.00 | 81 | 1015.8 |
| 20260504050204 | 54 | 42 | 1.0 | 4.0 | 0.00 | 0.00 | 0.00 | 81 | 1015.9 |
| 20260504045704 | 54 | 19 | 0.0 | 0.0 | 0.00 | 0.00 | 0.00 | 81 | 1015.7 |
| 20260504045204 | 54 | 31 | 0.0 | 0.0 | 0.00 | 0.00 | 0.00 | 81 | 1015.7 |
| 20260504044705 | 54 | 31 | 0.0 | 0.0 | 0.00 | 0.00 | 0.00 | 80 | 1015.7 |
| 20260504044204 | 55 | 31 | 0.0 | 0.0 | 0.00 | 0.00 | 0.00 | 80 | 1015.5 |
| 20260504043704 | 55 | 31 | 0.0 | 0.0 | 0.00 | 0.00 | 0.00 | 80 | 1015.5 |
| 20260504043205 | 55 | 255 | 0.0 | 0.0 | 0.00 | 0.00 | 0.00 | 80 | 1015.5 |
| 20260504042704 | 56 | 255 | 0.0 | 0.0 | 0.00 | 0.00 | 0.00 | 80 | 1015.4 |
| 20260504042204 | 56 | 255 | 0.0 | 0.0 | 0.00 | 0.00 | 0.00 | 79 | 1015.4 |
| 20260504041705 | 56 | 255 | 0.0 | 0.0 | 0.00 | 0.00 | 0.00 | 79 | 1015.2 |
| 20260504041204 | 56 | 255 | 0.0 | 0.0 | 0.00 | 0.00 | 0.00 | 79 | 1015.1 |
| 20260504040704 | 56 | 255 | 0.0 | 0.0 | 0.00 | 0.00 | 0.00 | 79 | 1015.0 |
| 20260504040204 | 56 | 255 | 0.0 | 0.0 | 0.00 | 0.00 | 0.00 | 79 | 1015.0 |
| 20260504035704 | 56 | 291 | 0.0 | 2.0 | 0.00 | 0.00 | 0.00 | 78 | 1014.9 |
| 20260504035205 | 56 | 291 | 0.0 | 3.0 | 0.00 | 0.00 | 0.00 | 78 | 1014.9 |
| 20260504034704 | 56 | 265 | 1.0 | 4.0 | 0.00 | 0.00 | 0.00 | 78 | 1014.8 |
| 20260504034203 | 57 | 265 | 1.0 | 4.0 | 0.00 | 0.00 | 0.00 | 78 | 1014.8 |
| 20260504033204 | 57 | 254 | 0.0 | 4.0 | 0.00 | 0.00 | 0.00 | 77 | 1014.8 |
| 20260504032705 | 57 | 234 | 1.0 | 5.0 | 0.00 | 0.00 | 0.00 | 77 | 1014.7 |
| 20260504032206 | 57 | 261 | 2.0 | 6.0 | 0.00 | 0.00 | 0.00 | 77 | 1014.6 |
| 20260504031704 | 57 | 265 | 3.0 | 6.0 | 0.00 | 0.00 | 0.00 | 76 | 1014.6 |
| 20260504030705 | 57 | 244 | 3.0 | 7.0 | 0.00 | 0.00 | 0.00 | 75 | 1014.6 |
| 20260504030205 | 58 | 235 | 3.0 | 7.0 | 0.00 | 0.00 | 0.00 | 75 | 1014.5 |
| 20260504025705 | 58 | 285 | 3.0 | 7.0 | 0.00 | 0.00 | 0.00 | 74 | 1014.4 |
| 20260504025204 | 58 | 232 | 3.0 | 7.0 | 0.00 | 0.00 | 0.00 | 74 | 1014.4 |
| 20260504024205 | 58 | 265 | 4.0 | 8.0 | 0.00 | 0.00 | 0.00 | 72 | 1014.2 |
| 20260504023704 | 59 | 233 | 4.0 | 8.0 | 0.00 | 0.00 | 0.00 | 71 | 1014.1 |
| 20260504023206 | 59 | 307 | 3.0 | 8.0 | 0.00 | 0.00 | 0.00 | 71 | 1014.1 |
| 20260504022706 | 59 | 232 | 3.0 | 7.0 | 0.00 | 0.00 | 0.00 | 71 | 1014.2 |
| 20260504021705 | 60 | 248 | 3.0 | 10.0 | 0.00 | 0.00 | 0.00 | 69 | 1014.1 |
| 20260504020704 | 60 | 246 | 5.0 | 10.0 | 0.00 | 0.00 | 0.00 | 69 | 1014.1 |
| 20260504020205 | 60 | 256 | 5.0 | 9.0 | 0.00 | 0.00 | 0.00 | 69 | 1014.2 |
| 20260504014205 | 60 | 238 | 5.0 | 9.0 | 0.00 | 0.00 | 0.00 | 69 | 1014.3 |
| 20260504013705 | 60 | 241 | 5.0 | 12.0 | 0.00 | 0.00 | 0.00 | 69 | 1014.3 |
| 20260504013204 | 61 | 268 | 5.0 | 12.0 | 0.00 | 0.00 | 0.00 | 70 | 1014.3 |
| 20260504012704 | 61 | 232 | 5.0 | 12.0 | 0.00 | 0.00 | 0.00 | 70 | 1014.3 |
| 20260504012204 | 61 | 221 | 5.0 | 10.0 | 0.00 | 0.00 | 0.00 | 70 | 1014.3 |
| 20260504011205 | 62 | 198 | 4.0 | 9.0 | 0.00 | 0.00 | 0.00 | 69 | 1014.4 |
| 20260504010705 | 62 | 215 | 4.0 | 9.0 | 0.00 | 0.00 | 0.00 | 70 | 1014.3 |
| 20260504010205 | 62 | 218 | 4.0 | 9.0 | 0.00 | 0.00 | 0.00 | 70 | 1014.3 |
| 20260504005704 | 62 | 223 | 4.0 | 11.0 | 0.00 | 0.00 | 0.00 | 70 | 1014.3 |
| 20260504005204 | 62 | 280 | 4.0 | 11.0 | 0.00 | 0.00 | 0.00 | 69 | 1014.2 |
| 20260504004705 | 61 | 267 | 4.0 | 12.0 | 0.00 | 0.00 | 0.00 | 70 | 1014.1 |
| 20260504004204 | 61 | 252 | 5.0 | 12.0 | 0.00 | 0.00 | 0.00 | 70 | 1014.2 |
| 20260504003705 | 61 | 236 | 5.0 | 12.0 | 0.00 | 0.00 | 0.00 | 70 | 1014.1 |
| 20260504003204 | 61 | 259 | 5.0 | 12.0 | 0.00 | 0.00 | 0.00 | 71 | 1014.2 |
| 20260504002704 | 60 | 248 | 6.0 | 12.0 | 0.00 | 0.00 | 0.00 | 70 | 1014.1 |
| 20260504002204 | 61 | 213 | 6.0 | 12.0 | 0.00 | 0.00 | 0.00 | 70 | 1014.1 |
| 20260504001204 | 62 | 197 | 5.0 | 9.0 | 0.00 | 0.00 | 0.00 | 67 | 1014.1 |
| 20260504000704 | 62 | 248 | 4.0 | 15.0 | 0.00 | 0.00 | 0.00 | 69 | 1014.1 |
| 20260504000205 | 62 | 205 | 5.0 | 15.0 | 0.00 | 0.00 | 0.00 | 70 | 1014.0 |
| 20260503235706 | 62 | 219 | 6.0 | 15.0 | 0.00 | 0.00 | 0.00 | 70 | 1014.0 |
| 20260503235204 | 62 | 197 | 7.0 | 14.0 | 0.00 | 0.00 | 0.00 | 70 | 1014.0 |